Location: ???????
(54.6339°N, 39.4245°E)
Time: 08:06:29
(UTC+00:00)

NOSS 2-1 (E) - Pass Details

Date: 19 May 2025
Orbit: 385 x 1749 km, 63.3° (Epoch: 07 May)

Event Time Altitude Azimuth Distance (km) Brightness Sun altitude
Exits shadow 22:21:20 - 263° (W) 1,925 5.9 -14.2°
Reaches altitude 10° 22:22:29 10° 270° (W) 1,463 5.3 -14.2°
Maximum altitude 22:25:17 30° 334° (NNW) 739 4.5 -14.0°
Drops below altitude 10° 22:28:02 10° 39° (NE) 1,439 6.6 -13.9°
Sets 22:30:16 0° 51° (NE) 2,355 7.6 -13.8°
